User: anonymous   Login
Location: Fort Frances
(48.6170°N, 93.4170°W)
Time: 08:24:43
(UTC-05:00)
Language:

CZ-2C R/B - Orbit

View from above orbital plane
View from above orbital plane
View from above satellite
View from above satellite

Ground track
Ground track

The orbit data is extracted from the following two-line orbital elements,

1 36089U 09061B   15143.11589625  .00000103  00000-0  37201-4 0  9994
2 36089 098.0723 167.2498 0081565 212.9265 214.8930 14.49440963292178
Epoch (UTC): 23 May 2015 02:46:53
Eccentricity: 0.0081565
inclination: 98.0723°
perigee height: 669 km
apogee height: 785 km
right ascension of ascending node: 167.2498°
argument of perigee: 212.9265°
revolutions per day: 14.49440963
mean anomaly at epoch: 214.8930°
orbit number at epoch: 29217

The dashed part of the orbit path shows where the satellite is in the earth's shadow,  

DLR